www.pogodaiklimat.ru

Погода и климат >> Архив погоды >> Италия >> Дезенцано


ПОГОДА в Дезенцано

  • Прогноз погоды в Дезенцано
  • Монитор погоды в Дезенцано

АРХИВ ПОГОДЫ в Дезенцано

Время (UTC), дата Ветер
(напр.,м/с)
 
Видим.   Явления Облачность Т
(С)
Тd
(С)
f
(%)
Тe
(С)
Тes
(С)
Комфортность P
(гПа)
Po
(гПа)
Тmin
(С)
Tmax
(С)
R
(мм)
R24
(мм)
S
(см)
19 18.08 штиль 0 н/о н/о +27.4 +20.2 65 +34 +34 очень
душно
1014.1 1006.5
20 18.08 штиль 0 н/о н/о +26.5 +20.3 69 +33 +33 очень
душно
1014.5 1006.9
21 18.08 В 1 н/о н/о +26.8 +21.5 73 +34 +34 очень
душно
1015.0 1007.4
22 18.08 штиль 0 н/о н/о +26.1 +21.7 77 +34 +34 очень
душно
1015.5 1007.9
23 18.08 СВ 1 н/о н/о +26.1 +22.5 81 +34 +34 очень
душно
1015.6 1008.0
00 19.08 В 1 н/о н/о +26.2 +22.0 78 +34 +34 очень
душно
1015.5 1007.9
01 19.08 штиль 0 н/о н/о +25.2 +21.4 79 +32 +32 очень
душно
1015.2 1007.6
02 19.08 С 1 н/о н/о +24.9 +22.7 88 +33 +33 очень
душно
1015.0 1007.4
03 19.08 штиль 0 н/о н/о +24.9 +23.3 91 +33 +33 очень
душно
1014.8 1007.2
04 19.08 С 1 н/о н/о +24.4 +23.7 96 +33 +33 очень
душно
1014.6 1007.0
05 19.08 З 1 н/о н/о +24.8 +23.7 94 +34 +34 очень
душно
1015.0 1007.4
06 19.08 СЗ 2 н/о н/о +25.6 +23.8 90 +35 +35 очень
душно
1015.3 1007.7 +24.2 104
07 19.08 СВ 1 н/о н/о +25.9 +24.1 90 +36 +36 очень
душно
1015.6 1008.0
08 19.08 В 1 н/о н/о +27.1 +23.1 79 +36 +36 очень
душно
1015.9 1008.3
09 19.08 С 2 н/о н/о +26.4 +22.4 79 +35 +35 очень
душно
1016.1 1008.5
10 19.08 С 2 н/о н/о +26.8 +23.0 80 +36 +36 очень
душно
1016.3 1008.7
11 19.08 С 3 н/о н/о +27.0 +24.0 84 +37 +37 очень
душно
1016.3 1008.7
12 19.08 СВ 3 н/о н/о +27.3 +24.1 83 +38 +38 очень
душно
1015.9 1008.3
13 19.08 С 3 н/о н/о +27.7 +24.5 83 +39 +39 очень
душно
1016.0 1008.4
14 19.08 С 3 н/о н/о +27.9 +22.6 73 +37 +37 очень
душно
1015.8 1008.2
15 19.08 С 3 н/о н/о +28.1 +22.1 70 +37 +37 очень
душно
1015.3 1007.7
16 19.08 С 3 н/о н/о +27.9 +24.1 80 +39 +39 очень
душно
1015.2 1007.6
17 19.08 С 2 н/о н/о +27.9 +24.1 80 +39 +39 очень
душно
1014.9 1007.3
18 19.08 штиль 0 н/о н/о +27.7 +24.3 82 +39 +39 очень
душно
1015.5 1007.9 +28.3
19 19.08 штиль 0 н/о н/о +26.9 +21.1 71 +34 +34 очень
душно
1015.9 1008.3
20 19.08 штиль 0 н/о н/о +26.6 +20.1 68 +33 +33 очень
душно
1016.3 1008.7
21 19.08 штиль 0 н/о н/о +27.0 +23.4 81 +37 +37 очень
душно
1016.0 1008.4
22 19.08 штиль 0 н/о н/о +26.6 +23.4 83 +36 +36 очень
душно
1016.5 1008.9
23 19.08 штиль 0 н/о н/о +26.2 +22.4 80 +34 +34 очень
душно
1016.8 1009.2
00 20.08 штиль 0 н/о н/о +25.5 +22.9 86 +34 +34 очень
душно
1016.9 1009.3
01 20.08 СЗ 1 н/о н/о +25.7 +25.0 96 +37 +37 очень
душно
1016.8 1009.2
02 20.08 З 1 н/о н/о +25.2 +24.3 95 +35 +35 очень
душно
1016.5 1008.9
03 20.08 С 5 н/о н/о +26.0 +24.5 91 +36 +36 очень
душно
1016.2 1008.6
04 20.08 С 4 н/о н/о +26.0 +23.6 87 +35 +35 очень
душно
1016.3 1008.7
05 20.08 С 7 н/о н/о +25.9 +23.7 88 +35 +35 очень
душно
1016.4 1008.8
06 20.08 С 4 н/о н/о +25.9 +23.7 88 +35 +35 очень
душно
1017.0 1009.4 +25.2 508
07 20.08 СЗ 2 н/о н/о +26.5 +23.5 84 +36 +36 очень
душно
1017.2 1009.6
08 20.08 С 1 н/о н/о +26.2 +23.0 83 +35 +35 очень
душно
1017.5 1009.9
09 20.08 СЗ 3 н/о н/о +26.4 +23.2 83 +36 +36 очень
душно
1017.9 1010.3
10 20.08 С 2 н/о н/о +26.7 +23.7 84 +37 +37 очень
душно
1017.9 1010.3
11 20.08 С 2 н/о н/о +27.2 +23.6 81 +37 +37 очень
душно
1017.6 1010.0
12 20.08 СЗ 2 н/о н/о +27.6 +23.6 79 +38 +38 очень
душно
1017.2 1009.6
13 20.08 СЗ 1 н/о н/о +28.1 +24.3 80 +39 +39 очень
душно
1016.8 1009.2
14 20.08 СЗ 2 н/о н/о +28.3 +25.1 83 +41 +41 опасность
перегрева
1016.3 1008.7
15 20.08 СЗ 2 н/о н/о +28.5 +25.3 83 +42 +42 опасность
перегрева
1015.9 1008.4
16 20.08 штиль 0 н/о н/о +28.4 +24.6 80 +40 +40 очень
душно
1015.5 1007.9
17 20.08 С 1 н/о н/о +28.0 +24.6 82 +40 +40 очень
душно
1015.3 1007.7
18 20.08 штиль 0 н/о н/о +27.7 +24.3 82 +39 +39 очень
душно
1015.3 1007.7 +28.7
19 20.08 штиль 0 н/о н/о +27.3 +23.7 81 +37 +37 очень
душно
1016.2 1008.6
20 20.08 СВ 1 н/о н/о +27.1 +23.9 83 +37 +37 очень
душно
1016.3 1008.7
21 20.08 штиль 0 н/о н/о +26.4 +23.4 84 +36 +36 очень
душно
1016.3 1008.7
22 20.08 штиль 0 н/о н/о +26.3 +23.3 84 +36 +36 очень
душно
1016.5 1008.9
23 20.08 СВ 2 н/о н/о +27.0 +23.4 81 +37 +37 очень
душно
1016.2 1008.6
00 21.08 СЗ 6 н/о н/о +26.7 +23.1 81 +36 +36 очень
душно
1015.9 1008.3
01 21.08 С 8 н/о н/о +26.2 +23.4 85 +36 +36 очень
душно
1016.0 1008.4
02 21.08 СЗ 9 н/о н/о +26.0 +23.6 87 +35 +35 очень
душно
1016.2 1008.6
03 21.08 СЗ 9 н/о н/о +26.0 +23.0 84 +35 +35 очень
душно
1016.3 1008.7
04 21.08 С 7 н/о н/о +25.8 +24.2 91 +36 +36 очень
душно
1016.6 1009.0
05 21.08 С 4 н/о н/о +26.0 +23.2 85 +35 +35 очень
душно
1017.2 1009.6
06 21.08 С 3 н/о н/о +26.0 +22.8 83 +35 +35 очень
душно
1017.6 1010.0 +25.6 406
07 21.08 С 3 н/о н/о +26.4 +22.4 79 +35 +35 очень
душно
1018.0 1010.4
08 21.08 СЗ 2 н/о н/о +26.4 +21.6 75 +34 +34 очень
душно
1018.2 1010.6
09 21.08 С 2 н/о н/о +26.7 +21.6 74 +34 +34 очень
душно
1018.3 1010.7
10 21.08 С 3 н/о н/о +27.1 +22.0 74 +35 +35 очень
душно
1018.3 1010.7
11 21.08 СЗ 3 н/о н/о +27.9 +22.1 71 +36 +36 очень
душно
1018.2 1010.6
12 21.08 СЗ 4 н/о н/о +27.1 +23.3 80 +37 +37 очень
душно
1018.0 1010.4
13 21.08 СЗ 3 н/о н/о +27.2 +24.0 83 +38 +38 очень
душно
1017.7 1010.1
14 21.08 С 3 н/о н/о +27.4 +24.0 82 +38 +38 очень
душно
1017.5 1009.9
15 21.08 С 3 н/о н/о +27.2 +24.2 84 +38 +38 очень
душно
1017.0 1009.4
16 21.08 С 3 н/о н/о +27.1 +24.3 85 +38 +38 очень
душно
1017.1 1009.5
17 21.08 СЗ 2 н/о н/о +27.3 +24.5 85 +39 +39 очень
душно
1016.8 1009.2
18 21.08 штиль 0 н/о н/о +27.4 +22.3 74 +36 +36 очень
душно
1017.3 1009.7 +28.2
19 21.08 штиль 0 н/о н/о +26.9 +21.4 72 +34 +34 очень
душно
1017.6 1010.0
20 21.08 В 5 н/о н/о +27.3 +20.6 67 +34 +34 очень
душно
1019.1 1011.5
21 21.08 В 3 н/о н/о +27.0 +19.8 65 +33 +33 очень
душно
1019.5 1011.9
22 21.08 В 4 н/о н/о +26.9 +19.5 64 +33 +33 очень
душно
1019.3 1011.7
23 21.08 В 2 н/о н/о +26.5 +18.6 62 +31 +31 душно 1019.6 1012.0
00 22.08 В 2 н/о н/о +26.3 +18.6 63 +31 +31 душно 1019.9 1012.3
01 22.08 штиль 0 н/о н/о +26.2 +19.0 65 +31 +31 очень
душно
1019.7 1012.1
02 22.08 В 1 н/о н/о +25.3 +18.7 67 +30 +30 душно 1019.9 1012.2
03 22.08 штиль 0 н/о н/о +25.0 +19.8 73 +31 +31 очень
душно
1020.2 1012.5
04 22.08 В 1 н/о н/о +24.9 +20.1 75 +31 +31 очень
душно
1020.3 1012.6
05 22.08 СВ 3 н/о н/о +25.5 +21.7 80 +33 +33 очень
душно
1020.3 1012.6
06 22.08 С 3 н/о н/о +25.4 +22.2 82 +33 +33 очень
душно
1021.0 1013.3 +24.8 505
07 22.08 С 4 н/о н/о +25.4 +21.8 80 +33 +33 очень
душно
1021.0 1013.3
08 22.08 ЮЗ 1 н/о н/о +25.8 +22.8 84 +34 +34 очень
душно
1021.3 1013.6
09 22.08 СЗ 2 н/о н/о +26.7 +22.3 77 +35 +35 очень
душно
1021.1 1013.5
10 22.08 С 1 н/о н/о +26.1 +21.3 75 +33 +33 очень
душно
1021.7 1014.0
11 22.08 СВ 2 н/о н/о +27.3 +21.8 72 +35 +35 очень
душно
1021.2 1013.6
12 22.08 ЮВ 2 н/о н/о +27.4 +19.9 64 +34 +34 очень
душно
1020.9 1013.3
13 22.08 В 1 н/о н/о +27.9 +19.9 62 +34 +34 очень
душно
1020.4 1012.8
14 22.08 ЮВ 2 н/о н/о +28.4 +20.1 61 +35 +35 очень
душно
1019.9 1012.3
15 22.08 Ю 1 н/о н/о +28.0 +20.0 62 +34 +34 очень
душно
1019.4 1011.8
16 22.08 Ю 1 н/о н/о +28.2 +20.4 63 +35 +35 очень
душно
1019.2 1011.6
17 22.08 ЮВ 1 н/о н/о +27.7 +20.0 63 +34 +34 очень
душно
1019.2 1011.6
18 22.08 Ю 1 н/о н/о +27.4 +19.4 62 +33 +33 очень
душно
1019.6 1012.0 +28.6
19 22.08 штиль 0 н/о н/о +26.6 +19.7 66 +32 +32 очень
душно
1020.1 1012.5
20 22.08 штиль 0 н/о н/о +25.8 +20.5 73 +32 +32 очень
душно
1020.6 1012.9
21 22.08 штиль 0 н/о н/о +25.4 +20.6 75 +32 +32 очень
душно
1020.7 1013.0
22 22.08 Ю 1 н/о н/о +24.9 +20.3 76 +31 +31 очень
душно
1020.7 1013.0
23 22.08 штиль 0 н/о н/о +24.7 +21.0 80 +31 +31 очень
душно
1020.5 1012.8
00 23.08 штиль 0 н/о н/о +24.6 +21.9 85 +32 +32 очень
душно
1020.4 1012.7
01 23.08 СЗ 1 н/о н/о +24.9 +22.9 89 +33 +33 очень
душно
1020.2 1012.5
02 23.08 штиль 0 н/о н/о +25.2 +22.8 87 +33 +33 очень
душно
1020.1 1012.4
03 23.08 СВ 2 н/о н/о +25.4 +23.8 91 +35 +35 очень
душно
1020.1 1012.4
04 23.08 СЗ 2 н/о н/о +25.3 +23.3 89 +34 +34 очень
душно
1020.8 1013.1
05 23.08 штиль 0 н/о н/о +24.8 +22.6 88 +33 +33 очень
душно
1021.3 1013.6
06 23.08 СЗ 2 н/о н/о +25.1 +23.3 90 +34 +34 очень
душно
1021.4 1013.7 +24.5 4
07 23.08 Ю 1 н/о н/о +25.8 +23.2 86 +35 +35 очень
душно
1021.5 1013.8
08 23.08 ЮВ 1 н/о н/о +25.9 +22.1 80 +34 +34 очень
душно
1022.0 1014.3
09 23.08 В 2 н/о н/о +26.0 +22.4 81 +34 +34 очень
душно
1022.3 1014.6
10 23.08 С 2 н/о н/о +26.1 +21.9 78 +34 +34 очень
душно
1022.4 1014.7
11 23.08 СЗ 2 н/о н/о +26.3 +22.7 81 +35 +35 очень
душно
1021.9 1014.2
12 23.08 СЗ 3 н/о н/о +26.5 +22.3 78 +35 +35 очень
душно
1020.8 1013.2
13 23.08 С 2 н/о н/о +26.0 +22.8 83 +35 +35 очень
душно
1020.7 1013.0
14 23.08 С 1 н/о н/о +26.4 +22.2 78 +34 +34 очень
душно
1020.7 1013.1
15 23.08 СЗ 2 н/о н/о +26.7 +22.5 78 +35 +35 очень
душно
1020.4 1012.8
16 23.08 СЗ 2 н/о н/о +27.3 +23.3 79 +37 +37 очень
душно
1020.1 1012.5
17 23.08 СЗ 2 н/о н/о +26.8 +24.2 86 +37 +37 очень
душно
1019.7 1012.1
18 23.08 С 2 н/о н/о +26.7 +24.9 90 +38 +38 очень
душно
1020.0 1012.4 +27.3
19 23.08 СЗ 2 н/о н/о +26.4 +24.2 88 +37 +37 очень
душно
1020.3 1012.7
20 23.08 СЗ 1 н/о н/о +26.1 +23.5 86 +35 +35 очень
душно
1020.6 1013.0
21 23.08 З 1 н/о н/о +26.0 +23.8 88 +36 +36 очень
душно
1020.5 1012.9
22 23.08 СЗ 3 н/о н/о +25.7 +23.7 89 +35 +35 очень
душно
1020.5 1012.8
23 23.08 СЗ 4 н/о н/о +25.6 +23.8 90 +35 +35 очень
душно
1020.5 1012.8
00 24.08 СЗ 3 н/о н/о +25.5 +23.9 91 +35 +35 очень
душно
1020.3 1012.6
01 24.08 СЗ 6 н/о н/о +25.4 +23.6 90 +35 +35 очень
душно
1020.1 1012.4
02 24.08 СЗ 5 н/о н/о +25.3 +23.1 88 +34 +34 очень
душно
1020.0 1012.3
03 24.08 СЗ 5 н/о н/о +25.3 +23.1 88 +34 +34 очень
душно
1019.8 1012.1
04 24.08 СЗ 7 н/о н/о +25.2 +23.0 88 +34 +34 очень
душно
1019.7 1012.0
05 24.08 С 8 н/о н/о +24.9 +22.1 84 +32 +32 очень
душно
1019.9 1012.2
06 24.08 СЗ 4 н/о н/о +24.9 +22.1 84 +32 +32 очень
душно
1020.1 1012.4 +24.8 7
07 24.08 С 8 н/о н/о +24.8 +22.6 88 +33 +33 очень
душно
1020.2 1012.5
08 24.08 СЗ 7 н/о н/о +25.0 +22.4 86 +33 +33 очень
душно
1020.2 1012.5
09 24.08 С 5 н/о н/о +25.4 +22.2 82 +33 +33 очень
душно
1020.1 1012.4
10 24.08 С 4 н/о н/о +25.7 +21.9 80 +33 +33 очень
душно
1019.7 1012.0
11 24.08 С 1 н/о н/о +26.2 +21.1 74 +33 +33 очень
душно
1019.2 1011.6
12 24.08 С 1 н/о н/о +27.0 +21.5 72 +34 +34 очень
душно
1018.5 1010.9
13 24.08 СВ 2 н/о н/о +27.6 +24.2 82 +39 +39 очень
душно
1018.0 1010.4
14 24.08 С 3 н/о н/о +27.5 +23.9 81 +38 +38 очень
душно
1017.4 1009.8
15 24.08 СЗ 5 н/о н/о +27.2 +24.2 84 +38 +38 очень
душно
1017.7 1010.1
16 24.08 СЗ 5 н/о н/о +26.4 +20.7 71 +33 +33 очень
душно
1017.4 1009.8
17 24.08 СЗ 3 н/о н/о +26.2 +20.2 70 +32 +32 очень
душно
1016.8 1009.2
18 24.08 СЗ 2 н/о н/о +26.2 +20.7 72 +33 +33 очень
душно
1017.1 1009.5 +27.8
19 24.08 СЗ 2 н/о н/о +26.2 +21.8 77 +34 +34 очень
душно
1017.0 1009.4
20 24.08 С 3 н/о н/о +26.0 +22.0 79 +34 +34 очень
душно
1017.8 1010.2
21 24.08 ЮВ 2 н/о н/о +25.4 +21.4 79 +32 +32 очень
душно
1019.2 1011.5
22 24.08 штиль 0 н/о н/о +24.7 +20.7 78 +31 +31 очень
душно
1019.3 1011.6
23 24.08 штиль 0 н/о н/о +25.0 +21.7 82 +32 +32 очень
душно
1018.7 1011.0
00 25.08 штиль 0 н/о н/о +24.3 +21.7 85 +31 +31 очень
душно
1018.3 1010.6
01 25.08 З 3 н/о н/о +24.9 +22.7 88 +33 +33 очень
душно
1018.1 1010.4
02 25.08 СЗ 3 н/о н/о +25.0 +22.2 84 +32 +32 очень
душно
1017.9 1010.2
03 25.08 штиль 0 н/о н/о +24.7 +21.2 81 +31 +31 очень
душно
1017.7 1010.0
04 25.08 СЗ 3 н/о н/о +24.7 +21.9 84 +32 +32 очень
душно
1017.8 1010.1
05 25.08 З 2 н/о н/о +24.4 +21.5 84 +31 +31 очень
душно
1017.7 1010.0
06 25.08 СЗ 4 н/о н/о +24.6 +22.0 85 +32 +32 очень
душно
1017.8 1010.1 +24.2 107
07 25.08 СЗ 7 н/о н/о +24.9 +21.8 83 +32 +32 очень
душно
1018.1 1010.4
08 25.08 СЗ 6 н/о н/о +25.2 +21.8 81 +32 +32 очень
душно
1018.4 1010.7
09 25.08 СЗ 5 н/о н/о +25.6 +21.6 79 +33 +33 очень
душно
1018.6 1011.0
10 25.08 С 4 н/о н/о +26.0 +20.9 74 +33 +33 очень
душно
1018.2 1010.6
11 25.08 С 2 н/о н/о +26.7 +21.8 75 +34 +34 очень
душно
1017.8 1010.2
12 25.08 С 2 н/о н/о +27.1 +21.8 73 +35 +35 очень
душно
1017.6 1010.0
13 25.08 С 2 н/о н/о +27.3 +22.9 77 +36 +36 очень
душно
1017.0 1009.4
14 25.08 С 2 н/о н/о +27.3 +23.1 78 +37 +37 очень
душно
1016.5 1008.9
15 25.08 СВ 1 н/о н/о +27.6 +24.0 81 +38 +38 очень
душно
1016.2 1008.6
17 25.08 СЗ 1 н/о н/о +28.0 +24.2 80 +39 +39 очень
душно
1016.3 1008.7
18 25.08 С 2 н/о н/о +27.2 +23.6 81 +37 +37 очень
душно
1016.8 1009.2 +28.8
19 25.08 СЗ 2 н/о н/о +27.1 +24.1 84 +38 +38 очень
душно
1017.4 1009.8

 

Местоположение метеостанции Дезенцано (Италия): широта 45.67 долгота 10.55 высота над уровнем моря 64 м.

В архиве по умолчанию представлена погода в Дезенцано за последнюю неделю. Архивные данные за месяц целиком и за предыдущие месяцы, начиная с января 2011 года, Вы можете получить, выбрав интересующий диапазон дат из раскрывающегося списка и нажав кнопку "Ввод!".


*Определитесь, кто Вы:
робот инопланетянин человек

Внимание! Время в таблицах - всемирное. Для получения местного времени необходимо прибавить поправку, которая равна 1 ч.

Смотрите также архив погоды в соседних городах и на ближайших метеорологических станциях:

Погода в Брешиа (Италия) (35 км)
Погода в Тренто (Италия) (59 км)
Погода на Паганелле (Италия) (65 км)
Погода в Бергамо (Италия) (66 км)
Погода в Роббие (Швейцария) (84 км)
Погода на Пиц Корваче (Швейцария) (101 км)
Погода в Милане (Италия) (102 км)
Погода в Сегл-Марие (Швейцария) (104 км)
Погода в Санта-Мария-Валь-Мюстаире (Швейцария) (104 км)
Погода в Пьяченце (Италия) (105 км)

Пояснения к столбцам:

Ветер - указаны скорость ветра в м/с - средняя за 10 мин, порывы в срок и между сроками (в фигурных скобках) и направление, откуда дует ветер: С - северный, СВ - северо-восточный, В - восточный, ЮВ - юго-восточный, Ю - южный, ЮЗ - юго-западный, З - западный, СЗ - северо-западный.
Видимость - горизонтальная дальность видимости в метрах или километрах. При видимости от 1 до 10 км при отсутствии осадков обычно наблюдается дымка, при ухудшении видимости до 1 км и менее - туман. В сухую погоду видимость может ухудшаться дымом, пылью или мглою.
Явления - указаны атмосферные явления, наблюдавшиеся в срок или в последний час перед сроком; фигурными скобками обозначены явления, наблюдавшиеся между сроками (за 1-3 часа до срока); квадратными скобками обозначены град или гололедные отложения с указанием их диаметра в мм.
Облачность - указаны через наклонную черту общая и нижняя облачность в баллах и высота нижней границы облаков в метрах; квадратными скобками обозначены формы облаков: Ci - перистые, Cs - перисто-слоистые, Cc - перисто-кучевые, Ac - высококучевые, As - высокослоистые, Sc - слоисто-кучевые, Ns - слоисто-дождевые, Cu - кучевые, Cb - кучево-дождевые. Подробнее классификацию облаков см. в Атласе облаков (PDF).
T - Температура воздуха - температура, измеренная на высоте 2 м над землей.
Td - Температура точки росы - температура, при понижении до которой содержащийся в воздухе водяной пар достигнет насыщения.
f - Относительная влажность воздуха - влажноcть воздуха, измеренная на высоте 2 м над землей.
Te - Эффективная температура - температура, которую ощущает одетый по сезону человек в тени. Характеристика душности погоды. При расчете учитывается влияние влажности воздуха и скорости ветра на теплоощущения человека.
Tes - Эффективная температура на солнце - температура, которую ощущает человек, с поправкой на солнечный нагрев. Характеристика знойности погоды. Зависит от высоты солнца над горизонтом, облачности и скорости ветра. Ночью, в пасмурную погоду, а также при ветре 12 м/с и более поправка равна нулю.
P - Атмосферное давление - приведенное к уровню моря атмосферное давление.
Po - Атмосферное давление - измеренное на уровне метеостанции атмосферное давление.
Tmin - Минимальная температура - минимум температуры воздуха на высоте 2 м над землей.
Tmax - Максимальная температура - максимум температуры воздуха на высоте 2 м над землей.
R - Количество осадков - Количество выпавших осадков за период времени, мм. При наведении курсора мыши на число - период времени, за который выпало указанное количество осадков.
R24 - Количество осадков - Количество выпавших осадков за 24 часа, мм.
S - Снежный покров - Высота снежного покрова, см. При наведении курсора мыши на число - состояние снежного покрова и степень покрытия местности в баллах.